TimeCST,TemperatureF,Dew PointF,Humidity,Sea Level PressureIn,VisibilityMPH,Wind Direction,Wind SpeedMPH,Gust SpeedMPH,PrecipitationIn,Events,Conditions,WindDirDegrees,DateUTC
12:15 AM,41.0,41.0,100,29.92,10.0,Calm,Calm,-,N/A,,Overcast,0,2012-12-07 06:15:00
12:35 AM,42.8,41.0,93,29.92,10.0,Calm,Calm,-,N/A,,Overcast,0,2012-12-07 06:35:00
12:55 AM,42.8,41.0,93,29.91,10.0,Calm,Calm,-,N/A,,Overcast,0,2012-12-07 06:55:00
1:15 AM,44.6,42.8,93,29.91,10.0,Calm,Calm,-,N/A,,Overcast,0,2012-12-07 07:15:00
1:35 AM,44.6,42.8,93,29.91,10.0,Calm,Calm,-,N/A,,Overcast,0,2012-12-07 07:35:00
1:55 AM,44.6,44.6,100,29.90,10.0,SE,5.8,-,N/A,,Mostly Cloudy,130,2012-12-07 07:55:00
2:15 AM,48.2,46.4,93,29.90,10.0,SE,6.9,-,N/A,,Mostly Cloudy,130,2012-12-07 08:15:00
2:35 AM,48.2,46.4,93,29.89,10.0,ESE,8.1,-,N/A,,Overcast,120,2012-12-07 08:35:00
2:55 AM,48.2,46.4,93,29.89,10.0,SSE,4.6,-,N/A,,Overcast,150,2012-12-07 08:55:00
3:15 AM,46.4,46.4,100,29.88,10.0,SSE,5.8,-,N/A,,Overcast,160,2012-12-07 09:15:00
3:35 AM,48.2,46.4,93,29.87,10.0,SE,5.8,-,N/A,,Overcast,140,2012-12-07 09:35:00
3:55 AM,50.0,46.4,87,29.87,10.0,SE,5.8,-,N/A,,Overcast,130,2012-12-07 09:55:00
4:15 AM,50.0,46.4,87,29.86,10.0,ESE,5.8,-,N/A,,Overcast,120,2012-12-07 10:15:00
4:35 AM,50.0,46.4,87,29.86,10.0,SSE,4.6,-,N/A,,Mostly Cloudy,150,2012-12-07 10:35:00
4:55 AM,48.2,46.4,93,29.86,10.0,Calm,Calm,-,N/A,,Overcast,0,2012-12-07 10:55:00
5:15 AM,48.2,46.4,93,29.86,10.0,SSE,4.6,-,N/A,,Overcast,150,2012-12-07 11:15:00
5:35 AM,48.2,48.2,100,29.86,10.0,Calm,Calm,-,N/A,,Overcast,0,2012-12-07 11:35:00
5:55 AM,48.2,46.4,93,29.86,10.0,Calm,Calm,-,N/A,,Overcast,0,2012-12-07 11:55:00
6:15 AM,48.2,48.2,100,29.86,10.0,Calm,Calm,-,N/A,,Mostly Cloudy,0,2012-12-07 12:15:00
6:35 AM,48.2,48.2,100,29.86,10.0,Calm,Calm,-,N/A,,Overcast,0,2012-12-07 12:35:00
6:55 AM,48.2,48.2,100,29.86,10.0,Calm,Calm,-,N/A,,Overcast,0,2012-12-07 12:55:00
7:15 AM,48.2,48.2,100,29.86,9.0,SSE,3.5,-,N/A,,Overcast,150,2012-12-07 13:15:00
7:35 AM,48.2,48.2,100,29.86,7.0,Calm,Calm,-,N/A,,Overcast,0,2012-12-07 13:35:00
7:55 AM,48.2,48.2,100,29.86,7.0,Calm,Calm,-,N/A,,Overcast,0,2012-12-07 13:55:00
8:15 AM,50.0,50.0,100,29.86,8.0,Calm,Calm,-,N/A,,Overcast,0,2012-12-07 14:15:00
8:35 AM,50.0,50.0,100,29.86,7.0,Calm,Calm,-,N/A,,Overcast,0,2012-12-07 14:35:00
8:55 AM,50.0,50.0,100,29.87,5.0,Calm,Calm,-,N/A,,Overcast,0,2012-12-07 14:55:00
9:15 AM,48.2,48.2,100,29.87,4.0,Calm,Calm,-,N/A,,Overcast,0,2012-12-07 15:15:00
9:35 AM,48.2,48.2,100,29.87,5.0,Calm,Calm,-,N/A,,Overcast,0,2012-12-07 15:35:00
9:55 AM,50.0,50.0,100,29.87,5.0,Calm,Calm,-,N/A,,Overcast,0,2012-12-07 15:55:00
10:15 AM,50.0,50.0,100,29.87,6.0,Calm,Calm,-,N/A,,Overcast,0,2012-12-07 16:15:00
10:35 AM,50.0,50.0,100,29.87,8.0,Calm,Calm,-,N/A,,Overcast,0,2012-12-07 16:35:00
10:55 AM,50.0,50.0,100,29.86,8.0,Calm,Calm,-,N/A,,Overcast,0,2012-12-07 16:55:00
11:15 AM,51.8,50.0,94,29.86,7.0,NW,3.5,-,N/A,,Overcast,320,2012-12-07 17:15:00
11:35 AM,51.8,50.0,94,29.85,9.0,Calm,Calm,-,N/A,,Overcast,0,2012-12-07 17:35:00
11:55 AM,53.6,50.0,88,29.84,8.0,NW,4.6,-,N/A,,Overcast,310,2012-12-07 17:55:00
12:15 PM,53.6,50.0,88,29.84,8.0,NW,4.6,-,N/A,,Overcast,320,2012-12-07 18:15:00
12:35 PM,53.6,50.0,88,29.83,7.0,NW,6.9,-,N/A,,Overcast,310,2012-12-07 18:35:00
12:55 PM,53.6,50.0,88,29.82,8.0,NW,4.6,-,N/A,,Overcast,310,2012-12-07 18:55:00
1:15 PM,53.6,50.0,88,29.82,9.0,NW,6.9,-,N/A,,Overcast,310,2012-12-07 19:15:00
1:35 PM,53.6,50.0,88,29.81,9.0,WNW,6.9,-,N/A,,Mostly Cloudy,300,2012-12-07 19:35:00
1:55 PM,55.4,50.0,82,29.82,9.0,NNW,5.8,-,N/A,,Mostly Cloudy,340,2012-12-07 19:55:00
2:15 PM,55.4,50.0,82,29.81,8.0,NW,6.9,-,N/A,,Mostly Cloudy,320,2012-12-07 20:15:00
2:35 PM,55.4,50.0,82,29.82,9.0,NW,6.9,-,N/A,,Scattered Clouds,310,2012-12-07 20:35:00
2:55 PM,55.4,50.0,82,29.82,9.0,NW,8.1,-,N/A,,Mostly Cloudy,310,2012-12-07 20:55:00
3:15 PM,53.6,50.0,88,29.82,9.0,NW,6.9,-,N/A,,Overcast,320,2012-12-07 21:15:00
3:35 PM,53.6,50.0,88,29.82,8.0,NNW,6.9,-,N/A,,Overcast,330,2012-12-07 21:35:00
3:55 PM,53.6,48.2,82,29.82,8.0,NW,6.9,-,N/A,,Mostly Cloudy,310,2012-12-07 21:55:00
4:15 PM,53.6,48.2,82,29.82,9.0,NW,8.1,-,N/A,,Scattered Clouds,320,2012-12-07 22:15:00
4:35 PM,53.6,48.2,82,29.82,9.0,NW,5.8,-,N/A,,Mostly Cloudy,320,2012-12-07 22:35:00
4:55 PM,51.8,48.2,88,29.83,10.0,NW,5.8,-,N/A,,Mostly Cloudy,310,2012-12-07 22:55:00
5:15 PM,50.0,48.2,94,29.84,10.0,Calm,Calm,-,N/A,,Mostly Cloudy,0,2012-12-07 23:15:00
5:35 PM,50.0,48.2,94,29.85,10.0,Calm,Calm,-,N/A,,Overcast,0,2012-12-07 23:35:00
5:55 PM,50.0,48.2,94,29.85,9.0,Calm,Calm,-,N/A,,Overcast,0,2012-12-07 23:55:00
6:15 PM,50.0,48.2,94,29.85,7.0,Calm,Calm,-,N/A,,Overcast,0,2012-12-08 00:15:00
6:35 PM,50.0,48.2,94,29.86,7.0,NNW,4.6,-,N/A,,Overcast,340,2012-12-08 00:35:00
7:15 PM,50.0,48.2,94,29.86,8.0,Calm,Calm,-,N/A,,Overcast,0,2012-12-08 01:15:00
7:35 PM,50.0,48.2,94,29.86,8.0,Calm,Calm,-,N/A,,Overcast,0,2012-12-08 01:35:00
7:55 PM,50.0,48.2,94,29.86,8.0,Calm,Calm,-,N/A,,Overcast,0,2012-12-08 01:55:00
8:15 PM,50.0,48.2,94,29.86,7.0,North,3.5,-,N/A,,Overcast,360,2012-12-08 02:15:00
8:35 PM,50.0,48.2,94,29.86,6.0,Calm,Calm,-,N/A,,Overcast,0,2012-12-08 02:35:00
8:55 PM,50.0,48.2,94,29.86,5.0,Calm,Calm,-,N/A,,Overcast,0,2012-12-08 02:55:00
9:15 PM,50.0,48.2,94,29.86,5.0,North,3.5,-,N/A,,Overcast,360,2012-12-08 03:15:00
9:35 PM,48.2,48.2,100,29.86,5.0,Calm,Calm,-,N/A,,Overcast,0,2012-12-08 03:35:00
9:55 PM,48.2,48.2,100,29.87,5.0,Calm,Calm,-,N/A,,Overcast,0,2012-12-08 03:55:00
10:15 PM,48.2,48.2,100,29.87,3.0,NNW,5.8,-,N/A,Rain,Light Rain,330,2012-12-08 04:15:00
10:35 PM,48.2,48.2,100,29.87,2.5,NNW,3.5,-,0.02,Rain,Light Rain,330,2012-12-08 04:35:00
10:55 PM,48.2,48.2,100,29.88,1.8,Calm,Calm,-,0.04,Rain,Light Rain,0,2012-12-08 04:55:00
11:15 PM,48.2,48.2,100,29.88,1.5,Calm,Calm,-,N/A,Rain,Light Rain,0,2012-12-08 05:15:00
11:35 PM,48.2,48.2,100,29.89,1.5,WNW,3.5,-,0.04,Rain,Light Rain,290,2012-12-08 05:35:00
11:55 PM,48.2,48.2,100,29.88,1.5,NW,6.9,-,0.07,Rain,Light Rain,310,2012-12-08 05:55:00